Regional Weather Roundup
Issued by NWS Jackson, KY

Home | Current Version | Previous Version | Graphics & Text | Print | Product List | Glossary On
Versions: 1 2 3 4 5 6 7 8 9 10 11 12 13 14 15 16 17 18 19 20 21 22 23 24 25 26 27 28
000
ASUS43 KJKL 241710
RWRJKL

EAST KENTUCKY HOURLY WEATHER ROUNDUP
NATIONAL WEATHER SERVICE JACKSON KY
100 PM EDT MON JUL 24 2017

NOTE: "FAIR" INDICATES FEW OR NO CLOUDS BELOW 12,000 FEET WITH
NO SIGNIFICANT WEATHER AND/OR OBSTRUCTIONS TO VISIBILITY.

* THESE REPORTS ARE NOT UNDER NWS QUALITY CONTROL AND MAY NOT
  REPORT WEATHER SUCH AS PRECIPITATION AND FOG.

KYZ079-080-083-085-087-088-110-112-115-119-120-241800
...EASTERN KENTUCKY...

CITY           SKY/WX    TMP DP  RH WIND       PRES   REMARKS
JACKSON          N/A     83  71  67 CALM      29.98S
LONDON         PTSUNNY   85  66  53 W8        29.99S
SOMERSET*      PTSUNNY   82  66  57 SW6       29.99S
MONTICELLO*      N/A     85  74  69 W14       30.00S HX  92
WILLIAMSBURG*    N/A     82  72  69 SW6       30.00S
MIDDLESBORO*   PTSUNNY   83  70  66 S9        30.00S
PIKE CO APT*     N/A     80  73  80 W3        29.99S
BIG SANDY APT*   N/A     83  71  66 SW7       29.97S
MOREHEAD APT*    N/A     84  70  61 VRB7G16   29.96R
ASHLAND*         N/A     86  75  70 NW6       29.89S HX  95
$$

KYZ035-036-041-042-044-050-067-078-099-241800
...CENTRAL KENTUCKY...

CITY           SKY/WX    TMP DP  RH WIND       PRES   REMARKS
MT STERLING*   PTSUNNY   84  72  65 W8        29.97R
FLEMING/MASON*   N/A     83  67  58 NW15G21   29.95S
DANVILLE*        N/A     86  68  54 W8        29.98S
LEXINGTON      CLOUDY    83  71  67 W7        29.95F
FRANKFORT      PTSUNNY   85  71  63 W6        29.94S HX  90
LOUISVILLE     CLOUDY    89  73  59 W12G17    29.93S HX  97
LEBANON*       PTSUNNY   84  72  65 SW7       29.97S
GLASGOW*         N/A     87  68  52 SW5       29.97S HX  91
BOWLING GREEN    N/A     89  70  53 W6        29.96S HX  94
$$

KYZ091>093-OHZ055-061-077-WVZ005-015-034-035-042-241800
...SOUTHERN OHIO/WEST VIRGINIA...

CITY           SKY/WX    TMP DP  RH WIND       PRES   REMARKS
COVINGTON        N/A     83  66  56 NW12      29.95R
COLUMBUS         N/A     81  68  64 NW14      29.91R
DAYTON           N/A     78  65  63 N13       29.97R
WILMINGTON       N/A     81  67  62 N9        29.94S
HUNTINGTON       N/A     86  73  65 W10       29.91S HX  93
CHARLESTON     PTSUNNY   83  66  56 W10       29.92R
PINEVILLE*       N/A     82  68  63 MISG      30.03F
BECKLEY          N/A     80  64  58 W10       30.01S
BLUEFIELD        N/A     76  61  59 W9        30.05F
LOGAN CO APT*    N/A     81  68  65 W7        29.97S
$$

VAZ002-007-008-TNZ017-027-036-066-071-241800
...SOUTHWEST VIRGINIA/EAST TENNESSEE...

CITY           SKY/WX    TMP DP  RH WIND       PRES   REMARKS
WISE*          CLOUDY    77  64  65 SW3       30.08R
JONESVILLE*      N/A     82  68  61 SW7       30.03S
ABINGDON*      PTSUNNY   80  70  72 W10       30.05R
BRISTOL          N/A     82  69  64 SW6       30.02S
MORRISTOWN*    MOSUNNY   81  70  69 NW7       30.01S
SEVIERVILLE*   MOSUNNY   88  70  55 VRB5      29.99F HX  92
KNOXVILLE      PTSUNNY   84  70  62 SW8       29.99F
LAFOLLETTE*    MOSUNNY   82  73  74 S7        30.04S
OAK RIDGE      PTSUNNY   85  69  58 CALM      30.01F
CROSSVILLE       N/A     80  68  66 SW3       30.06S
NASHVILLE      CLOUDY    88  71  57 VRB7      29.98S HX  94
$$

...KEY TO REMARKS...
VSB - VISIBILITY IN MILES
WCI - WIND CHILL INDEX
HX  - HEAT INDEX

$$




USA.gov is the U.S. government's official web portal to all federal, state and local government web resources and services.